This is the latest recevied weather packets stored in our database for station/object KE8ZLU. If no packets are shown the sender has not sent any weather packets the latest 10 day(s).
| Time | Temp. | Humidity | Pressure | Rain* | Wind** | Luminosity | Snow |
|---|---|---|---|---|---|---|---|
| 1777425324 | 11.67° C | 81% | 1014.3 hPa | 0 mm | - | 0 W/m² | - |
| 1777425021 | 11.67° C | 82% | 1014.3 hPa | 0 mm | - | 0 W/m² | - |
| 1777424716 | 11.67° C | 81% | 1014.5 hPa | 0 mm | - | 0 W/m² | - |
| 1777424412 | 11.67° C | 80% | 1014.4 hPa | 0 mm | - | 0 W/m² | - |
| 1777424108 | 11.67° C | 80% | 1014.3 hPa | 0 mm | - | 0 W/m² | - |
| 1777423806 | 12.22° C | 79% | 1014.5 hPa | 0 mm | - | 0 W/m² | - |
| 1777423502 | 12.22° C | 78% | 1014.2 hPa | 0 mm | - | 1 W/m² | - |
| 1777423197 | 12.22° C | 78% | 1014 hPa | 0 mm | - | 2 W/m² | - |
| 1777422890 | 12.78° C | 77% | 1014 hPa | 0 mm | - | 3 W/m² | - |
| 1777422587 | 12.78° C | 76% | 1014.1 hPa | 0 mm | - | 5 W/m² | - |
| 1777422283 | 13.33° C | 75% | 1014 hPa | 0 mm | - | 7 W/m² | - |
| 1777421983 | 13.33° C | 73% | 1014.2 hPa | 0 mm | - | 10 W/m² | - |
| 1777421677 | 13.89° C | 73% | 1014.3 hPa | 0 mm | - | 13 W/m² | - |
| 1777421367 | 13.89° C | 72% | 1014.6 hPa | 0 mm | - | 17 W/m² | - |
| 1777421064 | 13.89° C | 71% | 1014.4 hPa | 0 mm | - | 21 W/m² | - |
| 1777420760 | 13.89° C | 71% | 1014.2 hPa | 0 mm | - | 25 W/m² | - |
| 1777420456 | 13.89° C | 71% | 1014.2 hPa | 0 mm | - | 29 W/m² | - |
| 1777420153 | 14.44° C | 70% | 1014 hPa | 0 mm | - | 34 W/m² | - |
| 1777419849 | 14.44° C | 70% | 1014 hPa | 0 mm | - | 40 W/m² | - |
| 1777419547 | 14.44° C | 70% | 1014.2 hPa | 0 mm | - | 47 W/m² | - |
| 1777419245 | 14.44° C | 68% | 1014 hPa | 0 mm | - | 54 W/m² | - |
| 1777418942 | 15° C | 69% | 1013.9 hPa | 0 mm | - | 60 W/m² | - |
| 1777418637 | 15° C | 69% | 1013.8 hPa | 0 mm | - | 69 W/m² | - |
| 1777418334 | 15° C | 69% | 1014.3 hPa | 0 mm | - | 86 W/m² | - |
| 1777418030 | 15° C | 70% | 1014.2 hPa | 0 mm | - | 54 W/m² | - |
* Rain latest hour (hover to see other rain measurements)
** Current wind speed in m/s (hover to see current wind gust speed)